TimeMDT,TemperatureF,Dew PointF,Humidity,Sea Level PressureIn,VisibilityMPH,Wind Direction,Wind SpeedMPH,Gust SpeedMPH,PrecipitationIn,Events,Conditions,WindDirDegrees,DateUTC
12:15 AM,78.8,64.4,61,30.00,10.0,Calm,Calm,-,N/A,,Clear,0,2013-07-24 06:15:00
12:35 AM,77.0,66.2,69,30.01,10.0,WSW,3.5,-,N/A,,Clear,250,2013-07-24 06:35:00
12:55 AM,77.0,64.4,65,30.00,10.0,West,5.8,-,N/A,,Scattered Clouds,280,2013-07-24 06:55:00
1:15 AM,77.0,64.4,65,30.01,10.0,East,6.9,-,N/A,,Partly Cloudy,100,2013-07-24 07:15:00
1:35 AM,77.0,64.4,65,30.01,10.0,SSE,5.8,-,N/A,,Clear,150,2013-07-24 07:35:00
1:55 AM,77.0,64.4,65,30.00,10.0,South,6.9,-,N/A,,Clear,180,2013-07-24 07:55:00
2:15 AM,77.0,64.4,65,30.00,10.0,South,6.9,-,N/A,,Clear,170,2013-07-24 08:15:00
2:35 AM,77.0,64.4,65,30.00,10.0,South,9.2,-,N/A,,Clear,180,2013-07-24 08:35:00
2:55 AM,75.2,64.4,69,29.99,10.0,SSW,8.1,-,N/A,,Clear,200,2013-07-24 08:55:00
3:15 AM,75.2,64.4,69,30.00,10.0,North,4.6,-,N/A,,Clear,10,2013-07-24 09:15:00
3:35 AM,75.2,64.4,69,30.00,10.0,Calm,Calm,-,N/A,,Clear,0,2013-07-24 09:35:00
3:55 AM,75.2,64.4,69,30.00,10.0,SW,4.6,-,N/A,,Clear,220,2013-07-24 09:55:00
4:15 AM,75.2,64.4,69,30.00,10.0,South,4.6,-,N/A,,Clear,170,2013-07-24 10:15:00
4:35 AM,73.4,64.4,73,30.00,10.0,SE,4.6,-,N/A,,Clear,140,2013-07-24 10:35:00
4:55 AM,73.4,64.4,73,30.01,10.0,SSE,4.6,-,N/A,,Clear,160,2013-07-24 10:55:00
5:15 AM,73.4,66.2,78,30.01,10.0,South,6.9,-,N/A,,Clear,180,2013-07-24 11:15:00
5:35 AM,73.4,64.4,73,30.01,10.0,SSW,8.1,-,N/A,,Clear,210,2013-07-24 11:35:00
5:55 AM,73.4,64.4,73,30.01,10.0,SSW,5.8,-,N/A,,Clear,200,2013-07-24 11:55:00
6:15 AM,73.4,64.4,73,30.02,10.0,Calm,Calm,-,N/A,,Clear,0,2013-07-24 12:15:00
6:35 AM,73.4,64.4,73,30.03,10.0,Calm,Calm,-,N/A,,Clear,0,2013-07-24 12:35:00
6:55 AM,73.4,64.4,73,30.03,10.0,South,3.5,-,N/A,,Clear,190,2013-07-24 12:55:00
7:15 AM,75.2,64.4,69,30.04,10.0,South,3.5,-,N/A,,Clear,180,2013-07-24 13:15:00
7:35 AM,77.0,64.4,65,30.04,10.0,SW,4.6,-,N/A,,Clear,220,2013-07-24 13:35:00
7:55 AM,77.0,62.6,61,30.04,10.0,SW,3.5,-,N/A,,Clear,220,2013-07-24 13:55:00
8:15 AM,78.8,62.6,57,30.04,10.0,Calm,Calm,-,N/A,,Clear,0,2013-07-24 14:15:00
8:35 AM,80.6,62.6,54,30.05,10.0,Calm,Calm,-,N/A,,Clear,0,2013-07-24 14:35:00
8:55 AM,80.6,62.6,54,30.05,10.0,Calm,Calm,-,N/A,,Clear,0,2013-07-24 14:55:00
9:15 AM,82.4,62.6,51,30.05,10.0,South,3.5,-,N/A,,Clear,170,2013-07-24 15:15:00
9:55 AM,84.2,62.6,48,30.06,10.0,Calm,Calm,-,N/A,,Clear,0,2013-07-24 15:55:00
10:15 AM,84.2,62.6,48,30.06,10.0,Calm,Calm,-,N/A,,Clear,0,2013-07-24 16:15:00
10:55 AM,87.8,62.6,43,30.07,10.0,South,6.9,-,N/A,,Clear,170,2013-07-24 16:55:00
11:15 AM,89.6,62.6,40,30.07,10.0,ESE,5.8,-,N/A,,Clear,120,2013-07-24 17:15:00
11:35 AM,89.6,62.6,40,30.07,10.0,ESE,6.9,-,N/A,,Clear,110,2013-07-24 17:35:00
11:55 AM,91.4,62.6,38,30.06,10.0,SE,6.9,-,N/A,,Clear,130,2013-07-24 17:55:00
12:15 PM,91.4,62.6,38,30.06,10.0,SE,8.1,-,N/A,,Clear,140,2013-07-24 18:15:00
12:35 PM,91.4,60.8,36,30.05,8.0,SSE,8.1,-,N/A,,Clear,150,2013-07-24 18:35:00
1:15 PM,93.2,62.6,36,30.01,10.0,SE,8.1,16.1,N/A,,Clear,130,2013-07-24 19:15:00
1:35 PM,93.2,57.2,30,30.01,10.0,SE,12.7,16.1,N/A,,Partly Cloudy,140,2013-07-24 19:35:00
1:55 PM,95.0,57.2,28,30.01,10.0,ESE,15.0,21.9,N/A,,Partly Cloudy,110,2013-07-24 19:55:00
2:15 PM,91.4,59.0,34,30.01,10.0,East,20.7,27.6,N/A,,Scattered Clouds,90,2013-07-24 20:15:00
2:35 PM,91.4,60.8,36,30.00,10.0,East,13.8,25.3,N/A,,Partly Cloudy,90,2013-07-24 20:35:00
2:55 PM,93.2,59.0,32,30.00,10.0,East,12.7,19.6,N/A,,Clear,80,2013-07-24 20:55:00
3:15 PM,93.2,60.8,34,30.00,7.0,East,29.9,38.0,N/A,,Clear,80,2013-07-24 21:15:00
3:35 PM,89.6,62.6,40,29.99,10.0,East,20.7,34.5,N/A,Thunderstorm,Clear,90,2013-07-24 21:35:00
3:55 PM,89.6,62.6,40,29.99,10.0,East,20.7,29.9,N/A,Thunderstorm,Clear,100,2013-07-24 21:55:00
4:15 PM,87.8,59.0,38,30.01,10.0,East,18.4,25.3,N/A,Thunderstorm,Clear,90,2013-07-24 22:15:00
4:35 PM,86.0,60.8,43,30.02,10.0,ESE,19.6,24.2,N/A,,Partly Cloudy,110,2013-07-24 22:35:00
4:55 PM,84.2,62.6,48,30.02,10.0,ESE,20.7,27.6,N/A,Thunderstorm,Partly Cloudy,120,2013-07-24 22:55:00
5:15 PM,84.2,59.0,42,30.02,10.0,SE,16.1,24.2,N/A,Thunderstorm,Partly Cloudy,130,2013-07-24 23:15:00
5:35 PM,82.4,57.2,42,30.02,10.0,SE,13.8,-,N/A,,Clear,130,2013-07-24 23:35:00
5:55 PM,82.4,59.0,45,30.03,10.0,SSE,6.9,-,N/A,,Scattered Clouds,150,2013-07-24 23:55:00
6:15 PM,82.4,60.8,48,30.02,10.0,SSW,5.8,-,N/A,Rain-Thunderstorm,Light Rain,210,2013-07-25 00:15:00
6:35 PM,80.6,64.4,58,30.07,3.0,West,26.5,32.2,0.02,Rain-Thunderstorm,Light Thunderstorms and Rain,260,2013-07-25 00:35:00
6:55 PM,73.4,64.4,73,30.09,5.0,West,11.5,24.2,0.07,Rain-Thunderstorm,Light Thunderstorms and Rain,270,2013-07-25 00:55:00
7:15 PM,73.4,64.4,73,30.09,6.0,West,9.2,-,0.03,Rain-Thunderstorm,Light Thunderstorms and Rain,260,2013-07-25 01:15:00
7:35 PM,73.4,62.6,69,30.08,9.0,WSW,25.3,36.8,0.04,Rain-Thunderstorm,Light Thunderstorms and Rain,250,2013-07-25 01:35:00
7:55 PM,77.0,59.0,54,30.07,9.0,West,10.4,-,0.05,Rain-Thunderstorm,Light Rain,280,2013-07-25 01:55:00
8:15 PM,73.4,64.4,73,30.08,6.0,NE,12.7,17.3,0.01,Rain-Thunderstorm,Light Rain,40,2013-07-25 02:15:00
8:35 PM,71.6,64.4,78,30.08,10.0,North,13.8,-,0.02,Rain,Light Rain,360,2013-07-25 02:35:00
8:55 PM,71.6,66.2,83,30.09,10.0,NW,8.1,-,0.02,Rain,Light Rain,320,2013-07-25 02:55:00
9:15 PM,71.6,66.2,83,30.12,10.0,North,8.1,-,N/A,,Clear,350,2013-07-25 03:15:00
9:35 PM,71.6,68.0,88,30.15,10.0,NW,12.7,-,N/A,,Clear,320,2013-07-25 03:35:00
9:55 PM,71.6,68.0,88,30.14,10.0,NNW,13.8,-,N/A,,Clear,340,2013-07-25 03:55:00
10:15 PM,71.6,66.2,83,30.15,10.0,NNW,11.5,-,N/A,,Clear,330,2013-07-25 04:15:00
10:35 PM,71.6,64.4,78,30.15,10.0,NNW,13.8,20.7,N/A,,Clear,330,2013-07-25 04:35:00
10:55 PM,71.6,64.4,78,30.15,10.0,NW,11.5,-,N/A,,Scattered Clouds,320,2013-07-25 04:55:00
11:15 PM,71.6,64.4,78,30.16,10.0,NW,6.9,-,N/A,,Mostly Cloudy,320,2013-07-25 05:15:00
11:35 PM,71.6,64.4,78,30.15,10.0,North,6.9,-,N/A,Rain,Light Rain,10,2013-07-25 05:35:00
11:55 PM,71.6,64.4,78,30.15,10.0,North,5.8,-,N/A,,Scattered Clouds,10,2013-07-25 05:55:00